Home > Time Zones > World Clock > Weather > U.S.A. > Erie > Past weeks

Flag for U.S.A. Weather past 2 weeks in Erie, Pennsylvania, U.S.A.

Now
41 °F

Sunny.


Feels Like: 35 °F
Forecast: 34 / 49 °F
Wind: 10 mph from Northeast

Location: Erie International Airport


UV Index: 5 (Moderate)

Visibility: 10 mi


Pressure: 30.45 "Hg

Humidity: 65%

Dew point: 30 °F

Location of ErieLocation

Historic Weather in Erie

°F

Erie temperature yesterday

Maximum temperature yesterday: 60 °F (at 11:51 AM)
Minimum temperature yesterday: 45 °F (at 6:51 AM)
Average temperature yesterday: 51 °F

Past Weeks' High & Low Weather Summary

 TemperatureHumidityPressure
High80 °F (Apr 13, 3:51 PM)100% (Apr 8, 4:51 AM)30.54 "Hg (Apr 8, 4:51 AM)
Low21 °F (Apr 16, 6:51 AM)21% (Apr 10, 3:51 PM)29.27 "Hg (Apr 8, 3:51 AM)
Average46 °F61%29.98 "Hg
* Reported Apr 4 8:01 AM — Apr 19 8:51 AM, Erie, Weather by CustomWeather, © 2014

Note: Actual official high and low records may vary slightly from our data, if they occured in-between our weather recording intervals... More about our weather records

Advertising

Historic Weather Conditions — Data for Previous 24 hours

 ConditionsComfort  
Time TempWeatherWind HumidityBarometerVisibility
8:51 AM
Apr 19
38 °FSunny.10 mph73%30.44 "Hg10 mi
7:51 AM36 °FSunny.8 mph79%30.42 "Hg10 mi
6:51 AM35 °FClear.9 mph78%30.39 "Hg10 mi
5:51 AM36 °FClear.6 mph75%30.37 "Hg10 mi
4:51 AM37 °FClear.5 mph76%30.36 "Hg10 mi
3:51 AM39 °FClear.10 mph73%30.34 "Hg10 mi
2:51 AM41 °FClear.9 mph76%30.34 "Hg9 mi
1:51 AM44 °FClear.9 mph73%30.33 "Hg10 mi
12:51 AM45 °FClear.6 mph76%30.32 "Hg9 mi
11:51 PM
Apr 18
45 °FClear.5 mph76%30.30 "Hg9 mi
10:51 PM47 °FPassing clouds.7 mph74%30.29 "Hg10 mi
9:51 PM47 °FPassing clouds.No wind77%30.29 "Hg10 mi
8:51 PM47 °FSunny.No wind77%30.28 "Hg10 mi
7:51 PM47 °FSunny.No wind69%30.27 "Hg10 mi
6:51 PM48 °FSunny.9 mph59%30.27 "Hg10 mi
5:51 PM51 °FPassing clouds.5 mph56%30.26 "Hg10 mi
4:51 PM58 °FMostly cloudy.8 mph47%30.25 "Hg10 mi
3:51 PM60 °FPartly sunny.No wind42%30.24 "Hg10 mi
2:51 PM55 °FSunny.8 mph45%30.27 "Hg10 mi
1:51 PM53 °FSunny.12 mph45%30.27 "Hg10 mi
12:51 PM57 °FSunny.14 mph36%30.27 "Hg10 mi
11:51 AM60 °FSunny.9 mph32%30.28 "Hg10 mi
10:51 AM58 °FSunny.12 mph33%30.29 "Hg10 mi
Weather by CustomWeather, © 2014

See weather overview